Temp
20 19 20 20 26 27 27 26 26 27 27 26 25 25 27 26 27 26 22 21 21 21 22 22 22 21 21 21 21 21 21 21 20 21 21 21 20 20 20 20 19 19 19 19 18 18 18 18 18
20 20 19 23 26 28 27 26 26 26 25 24 24 25 27 26 24 23 23 22 22 22 21 22 22 21 21 21 21 21 20 20 20 20 20 20 20 20 20 20 20 19 19 19 18 18 17 18 18
19 20 23 26 26 27 27 25 25 25 24 25 26 25 25 24 22 22 20 22 23 22 21 22 21 21 20 20 20 20 20 20 20 20 20 20 20 20 20 20 19 19 19 19 19 18 18 18 18
19 20 22 25 26 25 25 25 24 26 25 25 25 26 23 21 21 20 20 20 21 22 21 22 21 21 20 20 20 20 20 20 20 20 19 19 19 19 19 19 19 19 19 19 18 18 18 18 18
19 22 25 25 25 24 24 23 24 25 24 24 25 25 24 22 21 20 20 22 22 22 21 21 21 20 20 20 20 19 19 19 19 19 19 19 19 19 19 19 19 19 19 18 18 18 18 18 18
23 23 25 26 25 24 24 23 23 24 24 24 24 24 23 22 21 21 20 21 22 22 22 21 21 20 20 19 19 19 19 19 19 19 19 19 18 18 18 18 18 18 18 18 18 17 17 17 17
23 25 25 24 24 24 24 22 22 23 24 22 22 24 23 22 20 20 20 21 22 22 21 21 20 20 20 19 19 19 18 18 18 18 18 18 18 18 18 18 18 18 18 18 18 17 17 17 17
21 24 23 24 24 24 21 21 20 22 23 21 22 24 24 21 20 20 20 19 20 21 21 21 21 20 19 19 19 19 18 18 18 18 18 17 17 17 17 17 17 17 17 17 17 17 17 17 16
19 23 25 24 23 22 20 22 21 20 21 21 21 21 20 20 20 20 21 21 20 20 21 21 21 20 20 19 19 19 18 18 17 17 17 17 17 17 17 17 17 17 17 17 17 17 17 16 16
21 23 24 21 21 21 20 21 20 21 22 21 21 20 19 19 19 19 19 20 20 20 19 19 20 20 19 19 19 18 18 18 17 17 17 17 17 15 15 15 17 17 16 15 15 16 16 16 15
20 22 20 19 18 19 20 21 20 20 22 20 19 19 18 18 18 18 18 18 18 18 18 17 17 19 19 16 17 16 17 18 17 16 15 15 15 15 15 15 15 16 16 15 15 15 15 14 15
20 19 18 19 17 18 19 19 20 20 19 18 18 17 16 16 15 15 15 15 15 15 16 19 19 19 18 17 16 16 18 17 17 17 16 16 16 16 15 15 15 14 14 14 15 15 15 14 14
19 19 17 17 17 18 18 19 19 19 18 18 18 16 14 14 14 13 13 13 14 15 16 17 18 18 18 18 17 17 17 17 17 17 17 16 16 16 15 15 15 15 15 15 15 15 15 14 14
17 17 17 18 18 18 18 20 18 19 17 18 18 14 12 12 11 12 15 15 14 14 15 15 16 17 17 17 17 14 14 15 15 15 15 15 15 15 14 15 15 15 15 16 15 15 15 15 15
16 17 19 19 18 19 17 19 18 18 17 18 18 14 11 10 9 10 10 10 11 10 12 13 14 14 14 15 13 13 13 14 14 15 14 15 14 14 14 14 15 15 15 15 15 15 15 14 15
17 17 19 19 18 17 18 21 20 18 17 18 18 13 11 8 8 7 7 8 10 10 11 11 12 12 12 12 12 12 13 13 14 14 14 14 14 14 14 15 14 14 14 14 15 14 15 15 15
17 20 18 19 18 18 18 19 19 18 17 17 17 12 10 8 7 6 6 7 8 9 9 10 11 11 11 11 11 11 12 12 12 12 12 13 13 14 14 14 14 13 13 13 13 13 13 14 16
20 18 18 17 19 18 17 18 19 17 17 16 15 12 9 8 6 5 5 7 8 9 9 10 10 10 11 11 10 9 10 10 11 11 12 12 12 13 13 13 14 14 13 13 12 12 12 12 13
16 16 17 18 18 15 17 17 18 18 17 16 14 11 9 7 6 5 5 6 6 9 9 10 10 11 11 11 11 10 10 9 8 11 11 11 12 12 12 13 13 13 13 12 11 12 12 12 11
15 16 16 17 16 15 17 17 18 15 14 12 12 11 9 8 7 6 5 5 6 7 8 9 9 9 10 10 10 10 9 9 9 9 9 10 10 11 11 12 12 12 13 12 12 11 11 12 12
16 15 16 15 16 16 16 17 16 13 11 10 9 9 8 8 8 7 5 4 6 7 7 7 7 7 8 8 9 9 7 6 6 9 9 10 10 10 10 10 11 11 11 12 11 11 11 9 11
15 16 15 14 14 16 15 16 17 15 14 11 9 9 8 7 7 6 5 4 3 5 5 5 6 6 6 7 7 7 5 4 4 4 7 8 9 9 9 9 10 10 11 11 9 8 9 10 10
14 14 14 14 14 15 15 14 18 15 14 13 11 9 8 8 7 6 4 3 2 2 3 5 5 5 5 5 4 4 4 2 2 1 3 5 6 6 7 7 8 8 9 9 9 8 8 6 6
14 14 14 14 14 14 16 15 18 15 16 16 12 9 8 7 6 5 3 3 2 2 3 3 3 3 4 4 2 1 0 1 1 0 0 0 3 2 3 4 5 5 6 7 7 6 6 7 7
14 13 14 14 14 15 14 14 17 16 15 15 13 10 8 7 6 4 3 3 1 2 2 2 3 2 3 3 3 -0 1 -2 -2 -2 -3 -3 -3 -1 -1 1 0 2 3 2 3 4 2 4 5
14 14 13 12 14 15 13 14 16 15 14 12 12 10 9 7 4 4 2 2 1 1 1 2 2 1 2 2 1 0 -1 -3 -4 -4 -5 -5 -5 -4 -3 -3 -3 -2 -2 -2 -1 -1 0 1 2
13 13 15 13 14 13 15 16 13 12 11 10 10 9 8 6 3 3 2 1 0 -0 1 1 2 1 1 1 0 -0 -1 -3 -3 -4 -5 -5 -5 -5 -5 -4 -4 -4 -3 -2 -2 -2 -1 -0 0
13 15 12 12 11 12 15 15 15 12 12 10 10 9 9 5 2 2 1 -0 -0 -1 -1 1 1 1 0 0 -1 -1 -2 -3 -4 -5 -4 -4 -4 -5 -4 -4 -4 -5 -5 -5 -4 -2 -2 -1 -0
13 12 12 13 12 11 12 15 15 15 15 13 12 10 9 7 3 1 1 -1 -1 -2 -2 0 0 -0 -0 -0 -0 -1 -1 -3 -3 -3 -4 -4 -5 -6 -6 -7 -7 -6 -6 -6 -5 -4 -2 -2 -2
13 13 13 10 11 10 11 13 15 14 14 13 13 10 9 5 2 0 -0 -1 -2 -3 -3 -3 -2 -0 -0 -1 -1 -1 -2 -2 -4 -4 -4 -5 -6 -7 -7 -7 -7 -7 -7 -7 -7 -6 -5 -5 -4
Height
1520 1521 1521 1520 1516 1503 1506 1510 1511 1507 1506 1509 1510 1508 1505 1504 1503 1508 1514 1512 1512 1512 1511 1514 1516 1519 1522 1523 1524 1525 1527 1528 1529 1531 1531 1531 1532 1532 1532 1531 1531 1532 1534 1536 1538 1539 1541 1542 1542
1520 1520 1522 1518 1509 1501 1506 1510 1510 1510 1511 1511 1510 1509 1506 1508 1512 1513 1515 1512 1512 1511 1511 1513 1516 1518 1521 1523 1524 1525 1526 1528 1529 1530 1532 1532 1532 1532 1533 1534 1533 1533 1534 1535 1537 1539 1540 1542 1542
1520 1519 1519 1511 1505 1500 1505 1511 1512 1512 1512 1510 1509 1509 1509 1513 1515 1516 1516 1514 1512 1513 1512 1513 1517 1519 1521 1522 1524 1525 1526 1527 1528 1529 1531 1532 1532 1533 1533 1534 1535 1535 1535 1535 1536 1538 1539 1541 1542
1522 1521 1520 1509 1506 1513 1510 1514 1515 1510 1512 1512 1510 1509 1514 1517 1518 1518 1517 1515 1515 1515 1515 1515 1517 1518 1520 1521 1523 1524 1526 1527 1528 1528 1529 1530 1531 1532 1534 1535 1535 1536 1536 1536 1537 1538 1539 1540 1540
1522 1518 1508 1508 1511 1513 1516 1518 1516 1513 1515 1514 1510 1513 1516 1519 1518 1518 1518 1517 1516 1516 1517 1517 1518 1519 1520 1521 1523 1524 1525 1526 1527 1528 1529 1530 1531 1531 1533 1535 1535 1536 1536 1537 1538 1538 1539 1540 1541
1518 1516 1507 1503 1509 1512 1516 1519 1518 1516 1515 1515 1514 1514 1518 1520 1520 1519 1519 1518 1518 1518 1517 1517 1517 1518 1519 1520 1521 1522 1524 1525 1526 1527 1528 1528 1529 1531 1532 1532 1534 1535 1536 1537 1538 1539 1540 1541 1541
1517 1509 1503 1507 1509 1510 1514 1520 1519 1518 1516 1519 1519 1516 1518 1519 1519 1519 1519 1518 1519 1518 1518 1518 1517 1517 1518 1519 1519 1520 1522 1523 1524 1525 1526 1527 1528 1529 1530 1531 1532 1533 1535 1536 1537 1539 1540 1540 1540
1520 1513 1509 1508 1509 1509 1520 1521 1521 1520 1517 1521 1519 1515 1515 1519 1519 1518 1518 1517 1518 1518 1517 1517 1517 1517 1517 1518 1518 1519 1520 1520 1521 1522 1523 1525 1526 1526 1527 1529 1529 1530 1532 1534 1536 1537 1538 1538 1539
1522 1511 1502 1507 1511 1513 1520 1518 1520 1521 1521 1521 1520 1520 1518 1517 1517 1516 1516 1517 1516 1516 1515 1516 1517 1516 1516 1516 1516 1516 1517 1517 1518 1519 1520 1521 1523 1524 1524 1524 1526 1527 1529 1531 1532 1533 1534 1536 1537
1519 1511 1504 1516 1517 1518 1520 1519 1520 1519 1518 1518 1519 1520 1519 1516 1515 1514 1513 1514 1515 1515 1515 1513 1513 1514 1514 1515 1514 1514 1514 1514 1515 1516 1516 1518 1518 1521 1523 1522 1522 1524 1526 1528 1528 1529 1530 1531 1534
1521 1513 1519 1520 1522 1522 1520 1518 1519 1519 1516 1518 1519 1518 1518 1517 1515 1513 1512 1511 1510 1510 1511 1511 1510 1509 1510 1512 1513 1512 1512 1512 1512 1513 1514 1515 1515 1515 1517 1518 1517 1518 1522 1523 1524 1525 1525 1528 1531
1520 1522 1524 1521 1523 1522 1519 1519 1518 1518 1519 1520 1519 1518 1517 1516 1515 1513 1511 1509 1508 1507 1503 1504 1504 1505 1506 1507 1510 1510 1509 1509 1509 1510 1510 1510 1509 1510 1512 1513 1513 1513 1515 1516 1519 1521 1522 1523 1525
1519 1521 1524 1524 1522 1520 1519 1517 1517 1517 1518 1518 1518 1517 1516 1514 1513 1511 1509 1505 1503 1501 1499 1499 1500 1500 1501 1502 1503 1504 1505 1505 1505 1506 1507 1506 1505 1506 1506 1506 1507 1509 1509 1511 1513 1515 1517 1519 1518
1521 1522 1521 1520 1518 1516 1517 1513 1516 1516 1517 1516 1517 1518 1515 1513 1512 1510 1507 1504 1501 1499 1498 1497 1496 1497 1497 1497 1498 1499 1500 1501 1501 1501 1501 1501 1501 1501 1502 1502 1503 1503 1504 1506 1508 1509 1510 1510 1514
1521 1520 1513 1512 1515 1514 1515 1512 1513 1515 1516 1514 1514 1517 1515 1513 1511 1508 1507 1504 1502 1499 1497 1496 1495 1495 1495 1495 1495 1496 1497 1497 1497 1497 1497 1496 1497 1497 1498 1499 1498 1497 1498 1500 1502 1505 1505 1506 1506
1517 1518 1508 1510 1512 1517 1513 1498 1507 1512 1514 1512 1511 1515 1515 1513 1511 1508 1506 1504 1501 1499 1497 1495 1494 1494 1494 1493 1494 1494 1494 1494 1494 1494 1493 1492 1492 1493 1494 1494 1494 1494 1494 1495 1495 1494 1498 1497 1497
1512 1503 1510 1507 1511 1511 1513 1503 1505 1509 1510 1510 1510 1513 1514 1514 1512 1509 1508 1505 1502 1501 1499 1497 1494 1492 1492 1492 1494 1494 1493 1492 1492 1491 1490 1489 1488 1488 1489 1489 1488 1489 1489 1491 1493 1494 1492 1493 1492
1496 1506 1507 1509 1504 1508 1508 1503 1501 1506 1504 1507 1509 1512 1513 1513 1512 1511 1510 1507 1505 1504 1502 1499 1497 1495 1494 1493 1493 1493 1493 1492 1491 1490 1489 1488 1487 1486 1486 1486 1485 1484 1485 1486 1488 1487 1486 1486 1487
1509 1509 1507 1504 1505 1511 1505 1500 1498 1500 1500 1503 1506 1510 1512 1512 1512 1512 1510 1508 1507 1506 1504 1501 1498 1496 1495 1494 1493 1493 1491 1489 1489 1487 1486 1485 1484 1484 1483 1482 1481 1480 1479 1479 1480 1480 1481 1481 1481
1508 1508 1504 1500 1506 1509 1499 1495 1493 1500 1501 1506 1506 1508 1510 1511 1512 1511 1510 1509 1507 1505 1503 1501 1499 1497 1495 1494 1492 1490 1489 1489 1488 1486 1483 1482 1481 1480 1479 1478 1477 1476 1475 1474 1474 1474 1474 1473 1474
1504 1507 1502 1504 1503 1502 1496 1486 1488 1501 1504 1506 1507 1507 1509 1510 1510 1511 1510 1508 1505 1503 1501 1500 1499 1497 1495 1493 1492 1490 1488 1488 1486 1484 1482 1480 1478 1476 1475 1474 1472 1471 1470 1468 1468 1468 1467 1467 1467
1505 1501 1505 1506 1505 1496 1500 1488 1478 1488 1495 1501 1504 1506 1508 1509 1510 1510 1509 1507 1505 1503 1502 1500 1498 1496 1494 1493 1491 1488 1486 1485 1483 1481 1478 1476 1473 1472 1470 1468 1466 1465 1464 1462 1462 1461 1460 1459 1458
1505 1506 1506 1505 1502 1497 1493 1499 1465 1482 1488 1493 1500 1503 1505 1507 1508 1509 1508 1507 1505 1502 1501 1499 1498 1496 1493 1491 1489 1486 1484 1482 1479 1477 1474 1472 1469 1467 1464 1461 1460 1458 1457 1455 1454 1454 1453 1452 1452
1507 1506 1501 1500 1497 1493 1477 1486 1461 1478 1479 1482 1494 1499 1502 1504 1506 1507 1506 1506 1504 1502 1501 1499 1496 1494 1491 1489 1486 1484 1480 1478 1474 1472 1469 1467 1465 1462 1459 1455 1453 1451 1449 1447 1447 1446 1445 1443 1443
1505 1505 1497 1491 1488 1482 1485 1485 1468 1471 1479 1482 1489 1494 1499 1502 1504 1505 1505 1504 1503 1501 1500 1498 1496 1494 1491 1487 1486 1482 1478 1475 1471 1468 1466 1463 1460 1456 1453 1449 1447 1443 1442 1441 1440 1437 1436 1435 1433
1497 1497 1496 1498 1482 1474 1484 1478 1462 1473 1477 1483 1487 1491 1496 1499 1501 1503 1503 1503 1502 1500 1498 1497 1495 1492 1489 1487 1484 1479 1475 1473 1469 1465 1463 1460 1455 1451 1448 1445 1442 1438 1437 1435 1432 1429 1427 1424 1424
1496 1500 1489 1491 1484 1487 1472 1460 1470 1476 1481 1484 1486 1489 1492 1496 1499 1501 1501 1500 1500 1499 1496 1495 1493 1491 1488 1487 1484 1478 1474 1471 1466 1463 1460 1456 1452 1448 1445 1441 1436 1433 1431 1428 1425 1422 1419 1417 1416
1491 1488 1495 1493 1495 1481 1459 1456 1460 1470 1473 1480 1483 1485 1488 1493 1496 1497 1498 1498 1497 1497 1496 1495 1493 1490 1488 1486 1483 1478 1474 1470 1465 1461 1457 1453 1449 1446 1441 1436 1432 1429 1425 1422 1418 1415 1411 1409 1406
1486 1489 1490 1486 1484 1483 1472 1453 1453 1457 1461 1469 1475 1479 1483 1489 1494 1493 1496 1496 1496 1496 1495 1494 1491 1489 1487 1486 1483 1479 1474 1471 1466 1461 1456 1452 1448 1444 1440 1436 1431 1427 1422 1417 1412 1407 1404 1400 1398
1484 1481 1479 1488 1480 1485 1476 1456 1454 1459 1462 1464 1467 1474 1479 1486 1491 1490 1492 1496 1496 1495 1495 1492 1489 1488 1486 1485 1483 1480 1476 1472 1467 1461 1457 1453 1448 1445 1440 1435 1429 1424 1420 1414 1409 1402 1397 1392 1389
Wind_Speed
5 2 3 2 5 5 4 6 3 6 2 4 5 4 8 7 8 5 4 3 4 6 12 15 16 16 15 14 13 13 14 15 16 15 13 11 9 8 8 10 11 11 11 12 13 12 11 10 8
4 2 3 4 7 6 7 3 8 7 7 6 2 3 2 6 7 8 4 6 1 4 12 17 17 17 17 16 16 15 15 14 15 15 15 13 12 10 7 8 10 12 12 12 13 12 12 10 9
3 2 4 4 4 4 5 6 8 6 7 2 0 2 4 5 8 5 7 9 7 3 8 14 16 16 16 17 16 16 16 15 15 16 16 15 15 13 10 9 9 11 12 12 13 13 12 10 10
2 2 3 6 1 6 4 6 8 3 5 9 2 5 5 9 5 7 7 8 8 4 3 8 14 16 16 17 17 17 17 16 16 16 17 17 17 16 13 11 9 11 12 12 13 13 12 11 10
3 4 5 3 2 3 2 5 7 8 4 6 6 5 7 7 7 7 7 6 5 4 1 4 10 13 15 16 17 17 16 16 16 17 17 18 18 17 15 13 11 11 12 12 13 13 12 11 11
7 4 7 5 3 5 3 3 3 6 5 9 7 6 10 6 8 8 7 7 5 3 1 4 8 12 14 16 17 17 17 17 17 17 18 19 19 18 17 16 15 13 12 13 13 13 12 12 12
9 5 5 3 2 5 4 0 5 6 4 11 6 3 4 9 11 8 6 6 7 5 4 4 8 11 13 14 16 17 18 18 18 18 19 20 20 20 19 19 17 16 15 14 13 13 13 13 13
5 4 5 3 4 4 3 1 3 6 5 9 5 3 3 12 13 11 6 5 6 8 8 8 7 9 12 13 14 15 17 18 19 19 19 21 21 21 21 21 21 19 17 15 15 14 14 14 14
3 5 6 2 5 7 2 4 2 6 2 7 4 8 12 15 15 11 9 7 7 7 7 9 9 10 11 12 13 14 16 18 20 20 20 21 22 23 24 24 24 22 20 17 16 15 15 15 16
5 6 4 5 4 3 1 6 10 6 9 1 10 9 13 13 14 15 15 14 11 8 7 8 9 11 12 13 13 14 15 15 18 20 20 22 22 19 20 22 26 24 22 20 19 18 18 17 14
0 6 2 4 3 4 7 9 9 9 6 12 12 11 12 12 13 14 16 15 13 10 9 7 9 13 13 10 11 11 14 15 16 18 18 17 20 20 21 20 23 27 25 24 23 22 22 17 15
6 3 3 3 2 4 8 8 7 8 6 6 8 10 10 13 15 15 15 14 11 7 7 13 14 14 15 14 10 14 18 19 19 19 19 22 22 24 24 21 22 22 21 24 23 23 22 20 19
7 3 5 6 9 9 9 11 10 5 3 3 6 7 11 13 15 14 14 12 10 7 7 10 14 15 16 17 17 18 19 20 21 20 20 19 23 23 25 27 26 24 24 23 23 23 22 22 21
2 5 10 9 12 10 10 5 6 9 4 5 5 7 11 12 13 13 13 13 12 9 8 7 9 12 15 16 15 13 16 18 17 16 18 19 20 22 24 24 25 25 26 27 27 25 24 25 22
4 9 8 5 2 4 5 9 8 5 5 6 4 6 9 11 11 11 10 10 9 10 9 8 7 8 10 12 11 9 12 15 16 16 18 19 19 19 19 20 23 24 23 25 24 28 28 26 26
6 5 7 7 3 1 5 4 11 3 7 9 9 4 6 9 10 10 9 8 7 6 7 7 7 6 6 6 6 8 12 12 12 14 17 21 20 21 22 22 20 21 23 24 27 29 30 29 25
6 8 5 4 2 2 3 8 7 11 12 11 10 2 4 7 10 10 9 9 9 8 8 7 7 6 6 3 4 5 5 6 8 10 13 14 17 20 23 23 26 24 23 25 27 27 29 33 38
5 7 7 7 2 9 15 17 12 12 12 11 5 2 4 7 9 9 9 10 11 11 12 12 13 12 8 6 3 3 5 7 9 11 12 12 13 14 14 16 18 19 20 22 22 23 25 32 35
5 9 13 11 9 11 13 13 13 13 14 9 3 3 5 8 9 9 11 11 11 11 10 11 11 12 11 10 7 6 9 7 7 12 14 15 16 18 18 20 21 22 21 22 21 23 25 25 31
10 12 14 11 5 8 14 16 17 6 3 2 2 5 6 7 7 8 9 11 11 12 12 12 12 13 14 13 12 11 11 13 14 13 14 16 17 18 19 20 20 23 24 24 22 22 25 25 26
12 12 13 11 11 15 14 20 8 5 5 3 3 4 4 5 6 6 7 8 6 7 9 11 13 13 13 13 14 13 12 11 10 15 16 17 18 19 20 21 22 23 24 25 25 24 24 24 30
12 7 11 11 8 7 2 7 8 10 7 6 6 6 6 6 5 4 4 7 10 12 14 15 16 16 16 18 17 15 13 13 15 16 18 20 20 20 20 21 24 26 26 27 24 22 25 28 31
7 2 5 8 11 13 13 7 4 8 10 10 10 9 9 7 5 3 4 6 9 11 13 15 17 20 19 18 19 18 18 17 16 17 19 19 21 21 22 23 24 24 26 28 29 28 27 24 25
1 7 9 8 9 10 12 11 5 9 11 10 11 12 11 10 6 3 4 6 8 11 12 14 16 18 21 22 21 20 19 20 20 19 21 19 19 19 20 23 24 25 25 27 29 29 30 31 33
11 6 5 6 6 8 4 7 15 8 6 5 11 14 14 11 7 3 2 4 6 10 12 13 15 16 18 19 19 17 19 18 18 19 18 20 20 19 20 22 23 24 25 26 29 31 30 29 32
12 11 6 7 7 9 9 7 2 0 6 9 10 12 14 12 7 3 2 4 6 9 11 12 13 15 17 18 19 18 19 17 16 17 18 17 18 19 21 21 22 23 24 26 27 30 33 33 31
7 8 9 15 16 12 13 17 11 8 8 10 13 14 16 13 9 5 3 3 6 8 11 13 15 16 18 18 18 18 18 18 18 17 17 17 18 18 19 20 21 21 22 23 24 26 28 30 32
9 3 7 7 9 17 13 13 11 11 12 12 15 19 17 14 11 6 2 2 4 6 9 11 12 13 16 19 20 20 19 18 18 18 18 19 19 19 20 21 21 21 22 22 22 24 26 28 31
7 11 9 11 11 13 15 13 7 2 4 12 15 19 19 17 12 8 4 2 3 5 6 8 11 13 15 16 18 19 19 19 20 20 20 20 20 19 19 19 20 21 22 23 24 25 26 27 26
9 15 16 12 13 7 12 17 3 3 5 7 10 16 16 17 13 9 6 3 2 3 5 8 10 12 13 14 15 16 17 18 19 21 21 21 21 19 19 19 20 22 23 22 22 23 22 23 26
Wind_Direction
355 356 338 275 243 242 130 98 347 337 220 39 337 291 0 13 4 29 86 77 206 193 212 208 203 201 199 199 199 194 192 188 186 189 189 185 178 168 168 173 177 181 185 183 187 189 190 189 189
7 348 306 274 261 235 116 49 27 4 321 313 248 264 231 72 45 84 94 18 38 208 201 205 202 202 203 206 208 206 204 201 197 198 200 198 191 182 182 186 188 189 192 192 193 197 198 201 204
350 33 269 283 281 294 117 49 30 59 48 4 266 28 29 40 45 54 28 25 40 88 175 203 204 207 210 214 215 216 215 212 209 208 208 208 205 199 193 197 200 202 201 200 200 202 207 210 214
305 241 197 254 18 77 31 55 16 61 77 31 332 73 76 40 26 19 19 36 50 64 183 210 211 214 219 223 227 228 225 222 221 219 217 214 213 211 208 207 208 208 211 208 208 209 211 217 222
284 241 240 225 122 116 107 40 27 55 60 14 11 69 72 35 34 28 24 36 56 60 109 222 229 231 232 234 237 236 235 234 233 231 227 223 219 217 216 217 216 217 217 216 214 216 218 221 229
236 270 239 234 143 144 141 49 9 27 51 34 39 98 66 41 15 4 7 10 28 49 129 221 226 235 239 240 241 240 238 239 241 239 236 230 226 224 222 221 222 223 224 222 222 223 224 228 234
278 258 289 271 187 180 118 188 32 345 24 27 351 62 105 33 18 359 349 342 337 339 320 267 238 234 239 244 245 245 246 244 244 243 241 236 232 229 228 226 225 227 228 227 227 228 229 234 238
279 267 231 215 200 117 81 338 340 1 60 351 2 23 350 345 346 343 329 341 338 327 321 310 276 252 245 248 251 255 256 253 249 245 242 239 237 234 231 231 230 228 229 229 232 230 230 234 240
281 248 248 208 209 110 86 314 350 323 312 331 11 343 325 326 331 333 328 310 321 325 316 307 293 269 256 251 254 255 257 255 250 248 244 241 238 237 234 231 232 232 232 229 232 232 232 234 237
262 266 25 28 66 96 345 323 322 320 332 235 325 330 335 340 342 346 339 319 304 298 294 291 276 269 260 255 258 260 260 255 251 248 248 244 239 232 234 234 234 235 234 231 232 232 235 233 234
277 285 95 115 87 344 309 302 317 328 304 343 330 337 343 355 358 355 347 338 321 305 299 288 276 254 251 253 258 260 253 259 255 247 245 240 235 232 236 230 240 233 231 230 230 229 232 231 230
255 277 267 167 209 282 285 299 283 293 320 339 351 350 9 16 16 8 3 0 355 355 270 250 253 254 248 248 256 252 258 262 262 265 257 251 248 247 237 231 229 229 227 230 230 231 230 228 228
244 252 255 260 275 269 276 260 268 247 52 358 350 31 30 20 17 15 15 7 349 316 276 254 251 248 245 250 251 261 262 259 260 265 262 263 253 249 247 243 241 237 235 234 232 232 231 236 235
85 273 278 279 273 277 268 245 209 181 359 340 359 39 39 33 22 13 5 2 358 337 312 278 255 248 246 249 253 252 260 266 265 258 258 256 259 253 249 247 244 242 245 246 242 240 240 241 243
284 280 265 271 257 160 271 216 208 147 316 306 352 34 40 40 34 27 18 16 10 356 335 311 284 265 257 250 247 246 257 267 265 256 256 247 247 246 246 251 250 249 246 246 246 242 241 242 241
259 262 263 127 237 120 241 270 177 287 321 308 323 38 50 45 43 35 27 25 19 3 348 343 335 312 276 262 246 237 242 243 251 250 248 251 246 251 252 253 257 263 259 258 254 253 241 236 235
185 274 248 206 201 262 274 301 251 296 291 309 323 83 80 71 56 47 39 34 28 18 4 350 343 335 335 299 266 260 257 254 253 254 255 254 253 250 251 253 252 252 254 261 256 253 251 255 260
312 246 216 253 155 290 284 273 269 276 280 299 304 122 101 86 73 63 52 46 36 25 18 16 13 13 4 342 308 319 307 302 290 280 278 272 264 262 261 261 262 264 261 260 259 262 258 256 245
263 264 275 276 269 292 270 278 281 274 277 280 223 154 119 106 96 80 68 63 50 39 28 19 12 8 358 356 347 308 305 295 296 276 273 276 277 277 273 269 269 269 272 269 263 252 253 256 253
247 263 269 280 275 267 282 283 280 308 271 257 185 151 143 127 104 83 70 59 51 44 36 29 25 16 7 358 348 339 331 321 311 299 291 284 281 277 274 272 269 271 272 273 270 266 258 254 252
244 266 274 278 295 277 279 273 173 172 171 148 138 143 142 137 119 97 75 54 34 26 31 23 17 14 7 1 350 345 341 333 315 307 299 293 289 286 283 279 276 271 268 269 269 268 264 263 252
270 269 264 269 273 276 80 288 206 184 204 203 187 182 169 159 139 108 61 31 13 1 352 354 351 347 346 347 343 340 342 337 326 323 314 308 296 289 283 277 274 274 273 270 270 269 262 258 260
277 267 254 268 269 281 263 256 160 185 220 207 200 193 184 172 153 119 52 30 23 9 4 356 355 349 339 340 338 336 333 328 324 323 317 313 307 302 295 286 280 274 270 268 268 267 261 257 257
195 233 239 256 263 259 256 219 248 181 220 197 197 198 187 178 171 136 65 46 32 16 11 8 4 354 349 344 345 340 335 330 323 320 319 314 310 306 301 296 293 285 277 271 270 267 264 260 257
219 250 269 246 207 257 94 254 252 185 205 217 197 198 190 185 182 158 88 53 30 15 12 7 3 357 352 347 342 341 336 333 333 328 327 324 317 309 306 304 301 296 290 283 275 274 271 265 261
212 231 253 265 263 276 168 253 260 253 191 213 202 194 188 187 180 161 104 58 29 16 8 6 6 5 360 353 350 346 345 341 340 335 331 328 324 321 316 311 308 305 300 295 289 282 277 276 270
149 222 270 275 271 267 260 259 164 173 193 196 201 196 196 191 181 172 121 56 25 17 8 10 11 8 7 5 2 360 356 351 348 344 340 334 331 328 322 322 320 314 306 301 295 288 283 280 275
251 359 239 228 265 257 257 258 265 194 217 210 212 209 203 196 186 174 138 62 28 14 9 8 10 17 18 16 13 12 9 6 3 357 351 348 344 339 336 333 330 325 319 312 304 297 292 286 280
200 232 241 276 256 266 273 270 47 300 214 205 215 211 204 195 194 172 159 83 43 28 16 10 18 22 18 17 18 17 19 17 16 14 8 1 354 349 347 342 340 337 333 326 317 307 300 292 285
258 266 277 252 252 256 279 273 125 236 246 232 205 196 198 188 189 175 172 156 87 48 26 20 17 11 10 12 13 14 17 22 23 23 17 12 7 0 357 356 353 351 344 338 332 325 319 308 296